{"data":{"norad_id":59324,"intl_designator":"2024-057E","name":"STARLINK-31570","alt_names":[],"object_type":"PAYLOAD","status":"ACTIVE","operator":null,"country":"US","launch_date":"2024-03-25","launch_site_code":"AFETR","launch_vehicle":null,"mission":null,"orbit_class":"UNKNOWN","rcs_meters":null,"size_class":null,"mass_kg":null,"dimensions":null,"purposes":["comms"],"wikipedia_slug":null,"has_3d_model":false,"image_url":null,"decayed_at":null,"tle_current":{"epoch":"2026-05-25T04:27:42.708672Z","epoch_age_seconds":62515,"freshness":"FRESH","line1":"1 59324U 24057E   26145.18591098  .00001022  00000+0  46665-4 0  9995","line2":"2 59324  43.0030 115.4528 0001310 269.7716  90.2986 15.27578236121536","mean_motion":15.27578236,"eccentricity":0.000131,"inclination_deg":43.003,"raan_deg":115.4528,"arg_perigee_deg":269.7716,"mean_anomaly_deg":90.2986,"bstar":4.6665e-5,"rev_number":12153,"period_min":94.266857569971,"perigee_km":482.1555620248,"apogee_km":483.95319416586,"semimajor_km":6861.1913780953,"source":"CELESTRAK","updated_at":"2026-05-25T13:38:18.903451Z"}}}